Вернуться в каталог

STARLINK-36696

АктивенСвязьSSO
NORAD 67651·PAYLOAD·🇺🇸 United States

Запущен Feb 2, 2026 с Vandenberg Space Force Base

Loading…

Ближайшие Пролёты (ближайшие 24 часа)

TLE

СвежийSource: CelesTrak SupGP

Эпоха: Sep 14, 2026, 21:36 UTC

1 67651C 26022D   26257.90048611  .00025521  00000+0  79245-3 0  2579
2 67651  97.2839 289.5079 0001075  98.1779   8.6292 15.33418241    19

Отслеживайте STARLINK-36696 в реальном времени с AllMySat

Download on the App Store